Location: Moscow
(55.7500°N, 37.5830°E)
Time: 10:49:53
(UTC+03:00)

A-11 Canister half - Pass Details

Date: 06 December 2021
Orbit: 1516 x 1684 km, 47.2° (Epoch: 24 January)

Event Time Altitude Azimuth Distance (km) Brightness Sun altitude
Rises 11:38:43 0° 275° (W) 4,850 11.5 11.2°
Reaches altitude 10° 11:42:00 10° 269° (W) 3,884 11.1 11.3°
Maximum altitude 11:51:09 43° 202° (SSW) 2,206 10.8 11.5°
Drops below altitude 10° 12:00:27 10° 136° (SE) 3,944 12.1 11.6°
Sets 12:03:49 0° 130° (SE) 4,931 12.4 11.6°
